Flag for Maldives Weather past 2 weeks in Male, Maldives

Now
86 °F

Scattered clouds.


Feels Like: 97 °F
Forecast: 81 / 84 °F
Wind: 16 mph from West

Location: Male Airport

Current Time: Aug 30, 2014 at 3:47:53 PM

Latest Report: Aug 30, 2014 at 3:00 PM


Visibility: N/A

Pressure: 29.77 "Hg

Humidity: 75%

Dew point: 77 °F

Location of MaleLocation

Historic Weather in Male — Graph

°F

Male temperature yesterday

Maximum temperature yesterday: 88 °F (at 11:00 AM)
Minimum temperature yesterday: 84 °F (at 12:00 AM)
Average temperature yesterday: 85 °F

Past Weeks' High & Low Weather Summary

 TemperatureHumidityPressure
High90 °F (Aug 28, 3:00 PM)100% (Aug 20, 12:00 AM)29.95 "Hg (Aug 20, 12:00 AM)
Low77 °F (Aug 20, 12:00 AM)62% (Aug 28, 11:00 AM)29.74 "Hg (Aug 21, 3:00 PM)
Average84 °F80%29.84 "Hg
* Reported Aug 15 2:00 PM — Aug 30 2:00 PM, Male, Weather by CustomWeather, © 2014

Note: Actual official high and low records may vary slightly from our data, if they occured in-between our weather recording intervals... More about our weather records

Advertising

Male weather history for previous 24 hours

 ConditionsComfort  
Time TempWeatherWind HumidityBarometerVisibility
2:00 PM
Aug 30
88 °FPartly sunny.16 mph70%29.77 "HgN/A
1:00 PM86 °FPartly sunny.15 mph75%29.80 "HgN/A
12:00 PM88 °FPartly sunny.15 mph70%29.83 "HgN/A
11:00 AM88 °FPartly sunny.15 mph70%29.86 "HgN/A
10:00 AM88 °FScattered clouds.15 mph70%29.86 "HgN/A
9:00 AM86 °FScattered clouds.14 mph75%29.86 "HgN/A
8:00 AM86 °FPartly sunny.13 mph75%29.83 "HgN/A
7:00 AM84 °FPartly sunny.15 mph74%29.83 "HgN/A
6:00 AM84 °FPartly sunny.13 mph79%29.80 "HgN/A
5:00 AM84 °FPassing clouds.15 mph84%29.80 "HgN/A
4:00 AM84 °FPassing clouds.15 mph74%29.80 "HgN/A
3:00 AM84 °FPassing clouds.15 mph79%29.80 "HgN/A
2:00 AM84 °FPartly cloudy.15 mph79%29.80 "HgN/A
12:00 AM84 °FSprinkles. Partly cloudy.14 mph74%29.83 "HgN/A
11:00 PM
Aug 29
84 °FPassing clouds.16 mph74%29.86 "HgN/A
10:00 PM84 °FPassing clouds.15 mph74%29.83 "HgN/A
9:00 PM84 °FPassing clouds.14 mph79%29.83 "HgN/A
8:00 PM84 °FPassing clouds.16 mph74%29.80 "HgN/A
7:00 PM84 °FPassing clouds.15 mph74%29.80 "HgN/A
6:00 PM86 °FPartly sunny.14 mph75%29.77 "HgN/A
5:00 PM86 °FPartly sunny.14 mph70%29.77 "HgN/A
4:00 PM88 °FPartly sunny.14 mph66%29.77 "HgN/A
3:00 PM86 °FBroken clouds.15 mph75%29.77 "HgN/A
Weather by CustomWeather, © 2014

See weather overviewHow to use our weather pages